Wind_Speed
16 17 18 18 18 19 18 17 17 17 16 15 16 16 14 13 14 15 19 20 20 20 21 21 20 20 21 20 19 20 20 20 19 18 19 19 18 17 18 16 15 13
15 16 17 18 18 18 18 17 17 18 17 15 15 16 14 14 15 17 18 19 20 20 20 20 19 20 21 20 20 20 20 20 19 19 20 20 19 18 18 16 14 13
14 15 16 17 17 17 17 17 17 19 18 15 15 16 15 14 15 17 17 18 20 20 19 19 19 19 20 20 19 19 19 19 19 20 20 20 20 19 18 15 14 13
14 16 16 16 16 17 17 17 17 18 17 15 15 15 16 16 16 17 18 18 20 20 19 19 19 19 20 19 18 19 19 19 19 19 19 19 19 18 16 15 15 14
14 17 19 18 17 17 18 19 19 18 17 15 14 15 16 17 17 17 18 19 20 20 19 19 19 19 19 18 18 19 18 19 20 20 20 19 18 16 15 15 15 15
15 17 19 20 18 16 18 19 18 19 19 17 16 16 17 18 18 17 18 19 20 19 18 19 19 19 18 17 18 18 18 21 22 21 20 19 17 16 15 15 15 15
16 16 16 16 18 18 18 17 16 18 20 20 18 18 17 17 18 18 19 19 20 19 18 18 18 19 18 17 17 18 20 20 19 18 18 17 16 16 16 15 15 15
15 16 14 13 16 19 18 17 15 17 20 20 19 18 17 17 18 18 19 19 20 19 18 17 19 19 19 19 18 19 20 19 17 17 17 16 16 16 15 16 16 16
14 17 16 15 15 16 17 17 18 19 20 20 19 18 18 18 19 20 20 20 20 20 18 18 19 20 21 20 20 20 19 18 17 17 16 15 15 15 15 15 15 16
14 16 17 18 18 18 18 19 20 20 21 21 20 19 19 19 21 21 21 21 22 20 18 18 19 21 22 21 20 19 18 17 17 16 15 15 14 14 14 14 14 15
14 15 16 17 19 21 22 23 23 22 22 22 22 20 21 21 22 23 22 22 23 20 18 18 20 21 22 20 18 16 16 16 16 15 14 14 14 13 13 13 14 14
11 13 16 17 19 21 23 24 23 23 23 23 23 22 22 23 24 23 23 23 23 20 19 19 20 21 20 19 17 16 16 15 14 14 14 14 14 13 13 13 14 14
12 11 14 18 19 21 22 24 24 23 22 22 24 23 23 25 26 24 23 23 21 20 19 20 19 19 18 17 17 17 17 16 14 14 15 15 14 14 14 14 14 15
13 13 13 16 18 19 21 24 25 23 20 20 23 25 26 26 26 24 23 23 21 20 21 20 18 17 16 16 17 17 17 17 16 15 15 16 15 15 14 14 14 14
15 14 14 15 17 18 19 22 23 22 19 19 22 26 27 26 25 24 23 23 22 23 22 20 17 16 15 15 16 17 18 17 16 16 16 16 16 16 15 14 14 14
17 15 14 15 16 17 18 19 21 21 20 20 21 25 27 27 25 24 23 23 24 25 22 19 17 15 14 14 15 17 18 18 17 17 17 16 16 16 16 15 15 15
17 14 13 13 14 16 17 18 19 20 20 21 21 22 27 28 26 25 24 24 26 25 21 18 17 16 15 15 16 17 17 17 17 18 18 16 15 16 16 15 15 15
19 16 14 12 11 12 13 14 16 17 18 19 19 20 25 26 25 24 24 25 25 23 19 17 17 17 16 16 16 17 17 17 17 18 17 16 16 17 15 15 17 17
22 20 19 15 11 10 10 10 11 14 16 17 17 19 23 25 25 23 23 24 24 20 18 18 18 18 18 17 16 16 16 16 16 17 17 16 18 18 16 17 18 19
22 22 21 21 20 16 12 11 11 13 15 16 16 18 22 24 25 25 24 23 21 18 18 19 20 19 18 17 16 15 14 14 15 17 17 18 18 18 17 18 19 20
19 21 21 22 24 24 20 16 14 14 15 16 17 19 23 25 27 28 26 21 18 18 19 21 21 20 17 16 15 14 13 13 15 17 18 18 18 18 18 19 20 21
18 18 19 20 22 25 24 19 15 14 15 17 19 22 24 27 29 27 23 21 20 19 20 22 21 19 17 15 14 13 12 12 14 17 18 18 18 19 20 21 21 21
19 15 16 17 18 21 23 20 13 12 14 15 19 23 24 25 27 25 22 23 22 20 20 21 20 19 17 15 14 13 11 10 11 15 18 19 20 21 23 23 23 21
23 17 14 14 15 17 20 20 14 7 9 12 14 20 22 21 22 24 23 23 22 20 19 19 19 18 18 16 14 12 10 9 10 14 18 20 22 25 25 24 22 19
28 22 17 13 12 14 17 18 18 14 6 4 8 13 15 15 16 20 21 21 20 20 19 19 19 18 17 15 14 11 10 10 12 14 18 22 24 25 22 19 18 17
28 27 22 15 12 13 16 17 19 19 13 5 4 4 6 8 11 15 18 19 20 21 21 19 18 17 14 12 12 11 9 9 11 14 17 21 23 21 19 18 18 19
Wind_Direction
290 284 279 276 274 271 266 260 260 265 264 263 266 267 263 256 246 237 231 225 219 216 217 218 219 218 216 214 216 218 220 221 219 216 210 205 201 200 201 201 201 204
280 276 273 274 275 270 262 256 257 260 261 261 262 262 259 254 248 241 234 226 221 219 220 223 223 220 217 216 218 220 221 221 218 212 207 203 200 200 202 201 199 203
271 269 267 269 273 270 263 259 257 258 260 262 261 260 257 255 248 241 233 225 222 222 222 223 223 221 220 221 221 223 224 223 220 212 205 202 202 202 200 199 198 201
266 263 265 265 264 260 259 260 258 258 261 264 266 262 256 255 251 239 231 225 221 222 223 222 222 224 225 224 223 225 224 222 221 214 206 203 204 202 197 196 199 199
272 262 257 256 256 255 257 260 259 258 259 262 266 262 254 254 254 241 230 225 222 221 222 220 221 224 224 221 221 223 222 220 219 212 205 203 201 199 197 200 202 201
277 272 263 257 255 259 263 266 267 265 263 263 264 261 253 251 252 240 226 221 219 219 220 219 220 222 220 217 218 219 219 219 217 207 201 199 198 199 202 204 204 204
275 275 274 264 254 255 262 266 268 270 267 263 260 256 249 246 246 234 220 216 217 218 218 218 219 218 216 214 213 214 216 218 216 209 203 201 201 204 206 205 204 204
275 269 267 255 247 250 257 260 260 262 264 263 260 254 245 241 237 225 215 215 217 217 216 216 216 214 212 212 211 212 214 215 213 212 211 207 204 204 205 204 204 204
278 269 260 248 244 243 247 256 259 259 261 262 259 251 241 234 228 219 213 214 215 214 213 213 212 212 212 211 211 210 210 210 211 211 210 208 206 203 202 203 203 204
283 272 261 249 245 238 235 244 252 256 259 260 256 246 237 228 221 217 214 212 210 208 210 211 208 209 211 209 208 208 206 206 210 210 205 203 204 203 201 200 201 203
289 277 268 256 247 242 239 239 241 246 252 256 252 243 234 224 216 214 213 210 207 206 209 211 206 205 207 207 206 207 205 203 204 206 202 199 199 200 199 198 198 202
304 284 274 266 255 249 246 243 240 239 242 248 247 239 229 220 213 212 211 207 203 203 208 209 204 203 204 205 204 204 205 203 201 201 200 198 198 196 194 195 195 198
327 302 280 272 264 258 254 251 248 243 240 241 238 231 224 216 211 210 211 207 202 201 204 206 202 201 201 203 204 203 203 202 201 199 198 197 197 194 192 193 194 197
338 322 299 281 274 269 261 255 251 248 249 246 234 226 220 214 211 210 207 205 201 199 200 200 197 198 201 203 203 202 202 201 200 200 199 198 195 193 192 191 193 195
336 323 307 289 280 275 267 260 253 249 256 258 240 224 217 213 211 208 202 199 199 199 197 193 194 201 206 207 204 201 200 200 201 200 199 199 195 192 191 191 191 191
336 320 304 288 278 272 268 266 261 254 254 259 248 226 215 212 209 202 198 198 198 197 192 189 196 204 206 205 204 201 198 199 200 195 194 197 196 193 192 191 189 188
351 338 320 298 283 273 266 265 266 262 260 267 262 233 214 210 207 200 199 202 198 192 186 188 196 200 199 199 198 195 195 194 190 187 190 194 195 195 194 190 187 186
6 3 353 330 302 283 273 268 271 271 269 270 262 237 218 210 205 202 205 204 195 187 185 190 194 192 190 189 187 185 185 185 185 188 191 192 193 195 194 190 186 183
14 17 16 6 344 313 291 284 282 279 274 266 254 236 222 211 203 204 208 200 188 183 188 190 186 181 179 179 178 179 182 187 193 194 194 195 194 192 191 189 187 181
19 22 24 21 14 358 333 311 300 292 282 271 256 236 220 208 201 201 201 194 186 185 187 183 176 172 173 174 175 180 187 194 198 195 195 197 194 187 187 187 183 179
16 17 17 19 20 14 1 337 314 296 278 264 249 232 215 204 199 195 192 188 186 186 183 176 170 168 170 173 178 185 189 192 194 193 192 192 186 180 181 180 175 172
12 9 9 13 20 22 15 353 318 286 266 252 236 219 204 196 194 190 184 180 182 183 179 173 166 164 171 178 183 187 185 184 192 193 188 184 179 175 173 171 169 167
15 7 4 11 21 27 26 11 330 273 248 240 224 207 198 194 189 182 177 176 175 176 177 172 162 162 174 183 186 187 183 183 194 194 185 178 175 173 173 170 167 166
24 16 4 9 22 29 32 27 10 312 251 235 215 201 199 193 181 175 176 174 169 169 174 171 163 165 177 183 184 185 184 191 202 195 182 176 176 176 174 169 162 161
31 27 12 6 22 36 40 40 36 26 357 239 193 186 191 183 173 176 177 170 166 170 174 170 165 167 174 175 173 179 188 199 208 200 184 179 180 178 170 162 159 159
38 38 31 23 31 46 52 54 51 42 35 46 112 150 176 163 164 177 174 167 168 171 169 165 163 165 171 167 165 175 189 201 217 216 197 182 179 176 170 165 164 161
Height
1518 1518 1518 1518 1518 1518 1519 1519 1520 1520 1521 1522 1523 1524 1525 1526 1528 1530 1531 1531 1532 1532 1532 1532 1533 1533 1535 1536 1538 1539 1540 1542 1543 1545 1546 1548 1549 1550 1552 1553 1554 1556
1515 1516 1516 1517 1517 1517 1517 1517 1517 1517 1518 1519 1520 1521 1523 1524 1526 1527 1529 1530 1530 1531 1531 1531 1532 1532 1533 1535 1537 1539 1540 1541 1542 1544 1545 1546 1548 1549 1550 1551 1553 1554
1513 1513 1514 1514 1514 1515 1515 1515 1515 1516 1516 1517 1517 1518 1520 1522 1523 1524 1526 1528 1528 1529 1529 1530 1530 1531 1532 1533 1535 1538 1540 1541 1541 1543 1544 1545 1546 1547 1548 1550 1551 1552
1511 1511 1511 1511 1511 1512 1513 1513 1514 1514 1515 1515 1515 1516 1517 1519 1520 1521 1523 1524 1525 1526 1527 1528 1529 1529 1530 1531 1533 1536 1539 1540 1541 1541 1542 1543 1544 1546 1547 1548 1550 1551
1509 1508 1508 1508 1509 1510 1510 1511 1512 1513 1513 1513 1513 1514 1515 1516 1517 1518 1519 1521 1522 1523 1525 1526 1527 1527 1529 1530 1532 1534 1537 1539 1539 1539 1540 1541 1543 1544 1546 1547 1548 1550
1507 1506 1506 1506 1507 1508 1508 1509 1510 1511 1511 1511 1511 1511 1513 1514 1515 1515 1516 1518 1519 1521 1522 1523 1525 1525 1527 1529 1531 1533 1535 1536 1538 1538 1539 1540 1541 1543 1545 1546 1547 1549
1505 1504 1504 1504 1504 1505 1505 1506 1507 1509 1509 1509 1509 1509 1510 1511 1512 1513 1514 1516 1517 1519 1520 1522 1523 1524 1525 1527 1529 1532 1533 1535 1537 1539 1539 1539 1540 1542 1544 1545 1546 1547
1503 1502 1502 1502 1501 1501 1502 1503 1504 1505 1506 1506 1506 1507 1507 1508 1510 1511 1512 1514 1515 1517 1518 1520 1521 1523 1524 1526 1528 1530 1531 1533 1536 1537 1538 1539 1540 1541 1542 1543 1544 1546
1502 1500 1499 1499 1498 1498 1499 1500 1501 1502 1503 1503 1504 1504 1505 1506 1507 1509 1510 1512 1513 1515 1516 1518 1520 1521 1523 1525 1526 1528 1529 1531 1533 1535 1537 1538 1539 1540 1541 1542 1543 1544
1500 1499 1497 1497 1496 1495 1496 1496 1497 1499 1500 1500 1500 1501 1502 1503 1505 1507 1508 1509 1511 1512 1515 1517 1518 1520 1522 1524 1525 1527 1528 1529 1531 1533 1535 1537 1537 1538 1539 1540 1542 1543
1497 1496 1495 1495 1494 1493 1494 1494 1495 1496 1496 1497 1497 1498 1500 1501 1503 1505 1506 1507 1509 1511 1513 1515 1516 1518 1520 1522 1523 1525 1526 1528 1530 1532 1534 1535 1536 1537 1538 1539 1540 1542
1495 1494 1493 1493 1492 1492 1492 1492 1492 1493 1493 1494 1494 1495 1497 1499 1500 1502 1504 1505 1507 1509 1512 1513 1515 1517 1519 1521 1522 1523 1525 1527 1529 1531 1532 1534 1535 1536 1537 1538 1539 1541
1493 1492 1491 1490 1490 1490 1490 1490 1490 1490 1490 1490 1491 1493 1494 1496 1498 1500 1502 1504 1506 1508 1510 1512 1514 1516 1518 1519 1521 1522 1524 1526 1527 1529 1531 1532 1533 1534 1535 1537 1538 1539
1493 1491 1490 1488 1488 1487 1487 1488 1488 1488 1488 1488 1489 1490 1492 1494 1496 1498 1500 1503 1505 1507 1509 1510 1512 1515 1516 1518 1519 1521 1523 1524 1526 1527 1529 1530 1532 1533 1534 1536 1537 1538
1492 1490 1489 1487 1486 1486 1485 1485 1486 1486 1486 1486 1487 1488 1490 1493 1495 1496 1498 1501 1503 1505 1507 1508 1511 1513 1515 1516 1518 1519 1521 1523 1525 1526 1528 1529 1531 1532 1533 1534 1536 1537
1490 1488 1487 1485 1484 1484 1484 1483 1484 1484 1485 1485 1486 1487 1489 1491 1492 1494 1496 1498 1500 1503 1505 1506 1509 1511 1514 1515 1517 1518 1520 1522 1523 1525 1527 1528 1529 1531 1532 1533 1535 1536
1488 1486 1485 1483 1482 1482 1481 1481 1482 1482 1483 1484 1486 1487 1488 1488 1490 1492 1494 1496 1498 1500 1502 1505 1508 1510 1512 1514 1515 1517 1519 1521 1522 1524 1526 1527 1529 1530 1531 1533 1534 1535
1487 1485 1484 1483 1481 1480 1480 1480 1480 1480 1481 1482 1483 1484 1485 1487 1489 1491 1493 1495 1497 1499 1501 1504 1506 1508 1511 1513 1515 1517 1518 1520 1522 1523 1525 1526 1528 1529 1531 1532 1533 1534
1487 1485 1484 1482 1481 1480 1479 1478 1478 1478 1479 1479 1480 1482 1484 1487 1489 1491 1492 1494 1496 1498 1501 1503 1505 1508 1510 1512 1514 1516 1518 1520 1521 1522 1524 1526 1527 1528 1530 1531 1532 1533
1487 1485 1484 1482 1481 1479 1478 1477 1477 1477 1477 1478 1479 1481 1483 1485 1488 1490 1492 1493 1495 1498 1501 1503 1505 1507 1510 1512 1514 1516 1517 1519 1520 1521 1523 1524 1525 1527 1529 1530 1531 1532
1488 1486 1484 1483 1481 1479 1477 1476 1476 1476 1477 1477 1478 1480 1482 1485 1488 1490 1491 1493 1495 1498 1501 1503 1504 1506 1509 1512 1514 1516 1517 1518 1519 1520 1522 1523 1524 1526 1528 1530 1531 1532
1489 1487 1486 1484 1482 1479 1478 1476 1476 1476 1477 1477 1478 1480 1481 1484 1486 1488 1490 1492 1496 1498 1501 1503 1504 1506 1509 1512 1514 1516 1517 1517 1518 1519 1521 1522 1524 1526 1528 1529 1531 1532
1490 1488 1487 1485 1483 1481 1480 1478 1478 1477 1478 1479 1480 1480 1480 1483 1485 1487 1489 1492 1495 1498 1501 1503 1503 1505 1509 1512 1514 1515 1516 1517 1518 1519 1520 1522 1524 1526 1527 1528 1530 1533
1491 1490 1489 1488 1486 1484 1482 1481 1481 1480 1480 1481 1481 1480 1481 1483 1486 1488 1490 1492 1495 1498 1501 1503 1503 1506 1510 1512 1514 1515 1517 1518 1518 1519 1520 1521 1523 1525 1526 1528 1531 1533
1494 1492 1491 1490 1488 1486 1485 1484 1484 1483 1483 1483 1482 1482 1483 1485 1488 1490 1491 1493 1495 1499 1501 1503 1504 1507 1510 1512 1514 1515 1517 1518 1519 1519 1519 1520 1523 1524 1527 1530 1532 1533
1497 1494 1493 1492 1491 1490 1488 1487 1486 1486 1486 1486 1485 1484 1486 1488 1490 1492 1493 1494 1496 1499 1501 1503 1506 1508 1511 1513 1514 1515 1517 1519 1520 1519 1519 1520 1523 1525 1527 1530 1532 1533